Location: Krakow
(50.0830°N, 19.9170°E)
Time: 21:00:02
(UTC+01:00)

Altair - Pass Details

Date: 07 December 2023
Orbit: 1501 x 1682 km, 47.2° (Epoch: 03 March)

Event Time Altitude Azimuth Distance (km) Brightness Sun altitude
Rises 05:16:04 0° 182° (S) 4,860 10.3 -19.5°
Reaches altitude 10° 05:20:43 10° 163° (SSE) 3,846 10.0 -18.8°
Maximum altitude 05:26:18 17° 128° (SE) 3,281 10.1 -17.9°
Drops below altitude 10° 05:31:47 10° 92° (E) 3,772 10.8 -17.1°
Sets 05:36:13 0° 74° (ENE) 4,726 11.1 -16.4°
